Epoch 2023 Feb. 25.0 TT = JDT 2460000.5 T 2021 Jan. 30.52522 TT Rudenko q 4.1682563 (2000.0) P Q n 0.09835374 Peri. 81.66807 +0.96916986 +0.19802391 a 4.6481001 Node 266.81881 -0.24037034 +0.89063727 e 0.1032344 Incl. 8.44399 +0.05414685 +0.40933089 P 10.0 >From 71 observations 2020 July 20-Nov. 26, mean residual 0".3.
m1 = 12.0 + 5 logΔ + 10.0 log r